Regional Weather Roundup
Issued by NWS Burlington, VT

Current Version | Previous Version | Text Only | Print | Product List | Glossary On
Versions: 1 2 3 4 5 6 7 8 9 10 11 12 13 14 15 16 17 18 19 20 21 22 23 24 25 26 27 28 29 30 31 32 33 34 35 36 37 38 39 40 41 42 43 44 45 46 47 48 49 50
000
ASUS41 KBTV 231430
RWRBTV
VERMONT REGIONAL WEATHER ROUNDUP
NATIONAL WEATHER SERVICE BURLINGTON VT
1000 AM EDT SUN APR 23 2017

NOTE: "FAIR" INDICATES FEW OR NO CLOUDS BELOW 12,000 FEET WITH NO
SIGNIFICANT WEATHER AND/OR OBSTRUCTIONS TO VISIBILITY.

* THESE REPORTS ARE NOT UNDER NWS QUALITY CONTROL AND/OR DO NOT
  REPORT WEATHER SUCH AS PRECIPITATION AND FOG.

VTZ001>019-231500-
_____VERMONT_____


CITY           SKY/WX    TMP DP  RH WIND       PRES   REMARKS
BURLINGTON     MOSUNNY   50  35  56 CALM      30.09F
MONTPELIER     SUNNY     46  37  71 N5        30.11S
MORRISVILLE    SUNNY     46  34  62 CALM      30.09F
ST. JOHNSBURY*   N/A     47  35  63 MISG      30.06F
LYNDONVILLE*   FAIR      46  35  66 CALM      30.08S
MIDDLEBURY*    FAIR      50  34  54 NW5       30.10S
RUTLAND*       SUNNY     48  36  63 N7        30.10F
SPRINGFIELD    SUNNY     49  35  58 E6        30.09F
HIGHGATE*      FAIR      47  36  65 S5        30.09R
NEWPORT*       FAIR      46  36  69 CALM      30.07S
BENNINGTON     SUNNY     50  36  58 MISG      30.10F
SUTTON*          N/A     46 N/A N/A MISG        N/A
ISLAND POND*     N/A     46 N/A N/A NW5         N/A
GALLUP MILLS*    N/A     46 N/A N/A MISG        N/A
UNION VILLAGE*   N/A     50 N/A N/A MISG        N/A
MT. MANSFIELD*   N/A     32 N/A N/A NE1         N/A

_____LAKE CHAMPLAIN_____


CITY           SKY/WX    TMP DP  RH WIND       PRES   REMARKS
BURTON ISLAND*   N/A     43  36  75 SW6         N/A
COLCHESTER RF*   N/A     41  37  87 SW13        N/A
DIAMOND ISL*     N/A     45  37  76 SW6         N/A

$$

NYZ007-026>031-035-052-083-087-231500-
_____NORTHERN NEW YORK_____


CITY           SKY/WX    TMP DP  RH WIND       PRES   REMARKS
PLATTSBURGH    SUNNY     47  35  63 SE10      30.09S
SARANAC LAKE   SUNNY     45  35  68 W8        30.05F
MASSENA        SUNNY     52  39  61 SW12      30.09F
OGDENSBURG*    FAIR      55  40  55 SW9G16    30.09S
POTSDAM*       SUNNY     54  39  58 W10       30.09S
STARK FALLS*     N/A     48 N/A N/A W5          N/A
WATERTOWN      SUNNY     50  40  68 SW13      30.11S
FT DRUM        SUNNY     54  35  48 W8        30.09S
ALBANY         MOSUNNY   53  35  50 VRB3      30.13S
GLENS FALLS    SUNNY     49  35  58 CALM      30.11F

$$
NHZ002-005-011-231500-
_____NEW HAMPSHIRE_____


CITY           SKY/WX    TMP DP  RH WIND       PRES   REMARKS
LEBANON        SUNNY     51  37  58 VRB5      30.08F
KEENE          SUNNY     50  34  54 N7        30.10F
MT WASHINGTON  MOSUNNY   30  12  47 NW36        N/A  WCI  14
PLYMOUTH       FAIR      52  33  49 W7        30.06F
WHITEFIELD     MOSUNNY   46  33  60 CALM      30.06F

$$

_____REGIONAL QUEBEC LOCATIONS_____


CITY           SKY/WX    TMP DP  RH WIND       PRES   REMARKS
MONTREAL       PTSUNNY   48  37  66 SW9       30.07F
QUEBEC CITY    PTSUNNY   43  39  87 SW8       30.04S
SHERBROOKE     MOSUNNY   45  36  70 W8        30.05S

_____REGIONAL ONTARIO LOCATIONS_____


CITY           SKY/WX    TMP DP  RH WIND       PRES   REMARKS
OTTAWA         PTSUNNY   54  36  50 SW14      30.05F

______KEY______
VSB  - VISIBILITY IN MILES
WCI  - WIND CHILL INDEX
HX   - HEAT INDEX
$$
NNNN



USA.gov is the U.S. government's official web portal to all federal, state and local government web resources and services.